TimeCDT,TemperatureF,Dew PointF,Humidity,Sea Level PressureIn,VisibilityMPH,Wind Direction,Wind SpeedMPH,Gust SpeedMPH,PrecipitationIn,Events,Conditions,WindDirDegrees,DateUTC
12:15 AM,53.2,45.9,76,30.22,10.0,NE,5.8,-,N/A,,Clear,40,2013-10-13 05:15:00
12:35 AM,52.9,46.2,78,30.22,10.0,NE,5.8,-,N/A,,Scattered Clouds,40,2013-10-13 05:35:00
12:55 AM,54.0,46.8,77,30.22,10.0,NE,6.9,-,N/A,,Scattered Clouds,50,2013-10-13 05:55:00
1:15 AM,55.8,46.9,72,30.22,10.0,NE,4.6,-,N/A,,Mostly Cloudy,50,2013-10-13 06:15:00
1:35 AM,55.8,46.0,70,30.23,10.0,NE,5.8,-,N/A,,Scattered Clouds,40,2013-10-13 06:35:00
1:55 AM,55.8,46.4,71,30.23,10.0,NE,6.9,-,N/A,,Scattered Clouds,40,2013-10-13 06:55:00
2:15 AM,55.8,45.5,68,30.24,10.0,NE,5.8,-,N/A,,Mostly Cloudy,50,2013-10-13 07:15:00
2:35 AM,55.8,44.4,66,30.24,10.0,ENE,9.2,-,N/A,,Mostly Cloudy,60,2013-10-13 07:35:00
2:55 AM,57.4,43.2,59,30.24,10.0,NE,9.2,-,N/A,,Mostly Cloudy,50,2013-10-13 07:55:00
3:15 AM,57.6,42.8,58,30.24,10.0,ENE,4.6,-,N/A,,Mostly Cloudy,70,2013-10-13 08:15:00
3:35 AM,57.2,42.4,58,30.24,10.0,ENE,6.9,-,N/A,,Mostly Cloudy,70,2013-10-13 08:35:00
3:55 AM,55.8,42.8,62,30.25,10.0,ENE,6.9,-,N/A,,Mostly Cloudy,70,2013-10-13 08:55:00
4:15 AM,55.8,43.7,64,30.26,10.0,ENE,5.8,-,N/A,,Mostly Cloudy,70,2013-10-13 09:15:00
4:35 AM,55.8,44.1,65,30.27,10.0,East,4.6,-,N/A,,Overcast,80,2013-10-13 09:35:00
4:55 AM,55.8,44.8,67,30.27,10.0,ENE,5.8,-,N/A,,Mostly Cloudy,70,2013-10-13 09:55:00
5:15 AM,55.8,45.1,67,30.28,10.0,ENE,4.6,-,N/A,,Scattered Clouds,60,2013-10-13 10:15:00
5:35 AM,55.8,45.7,69,30.28,10.0,ENE,4.6,-,N/A,,Scattered Clouds,70,2013-10-13 10:35:00
5:55 AM,54.7,45.1,70,30.28,10.0,ENE,5.8,-,N/A,,Scattered Clouds,60,2013-10-13 10:55:00
6:15 AM,53.2,44.1,71,30.29,10.0,ENE,4.6,-,N/A,,Scattered Clouds,70,2013-10-13 11:15:00
6:35 AM,53.2,44.4,72,30.30,10.0,East,3.5,-,N/A,,Scattered Clouds,90,2013-10-13 11:35:00
6:55 AM,53.2,45.0,73,30.30,10.0,ENE,5.8,-,N/A,,Mostly Cloudy,60,2013-10-13 11:55:00
7:15 AM,53.2,45.0,73,30.31,10.0,East,4.6,-,N/A,,Mostly Cloudy,100,2013-10-13 12:15:00
7:35 AM,53.2,45.3,74,30.32,7.0,East,4.6,-,N/A,,Scattered Clouds,80,2013-10-13 12:35:00
7:55 AM,53.2,45.7,76,30.32,10.0,NE,5.8,-,N/A,,Mostly Cloudy,50,2013-10-13 12:55:00
8:15 AM,53.8,45.9,75,30.33,10.0,ENE,5.8,-,N/A,,Mostly Cloudy,70,2013-10-13 13:15:00
8:35 AM,55.8,46.6,71,30.34,10.0,East,5.8,-,N/A,,Mostly Cloudy,90,2013-10-13 13:35:00
8:55 AM,56.5,45.7,67,30.34,10.0,East,8.1,-,N/A,,Scattered Clouds,100,2013-10-13 13:55:00
9:15 AM,58.8,44.6,59,30.34,7.0,East,9.2,-,N/A,,Clear,100,2013-10-13 14:15:00
9:35 AM,60.8,42.8,52,30.35,10.0,East,12.7,19.6,N/A,,Mostly Cloudy,100,2013-10-13 14:35:00
9:55 AM,60.8,41.0,48,30.35,10.0,East,12.7,19.6,N/A,,Mostly Cloudy,90,2013-10-13 14:55:00
10:15 AM,62.6,41.2,45,30.35,10.0,East,13.8,18.4,N/A,,Scattered Clouds,100,2013-10-13 15:15:00
10:55 AM,65.8,41.9,42,30.35,10.0,East,13.8,-,N/A,,Scattered Clouds,90,2013-10-13 15:55:00
11:15 AM,65.8,41.2,41,30.35,10.0,East,16.1,21.9,N/A,,Clear,90,2013-10-13 16:15:00
11:35 AM,66.6,41.2,40,30.36,10.0,East,15.0,23.0,N/A,,Clear,100,2013-10-13 16:35:00
11:55 AM,67.8,41.5,38,30.36,10.0,East,16.1,-,N/A,,Scattered Clouds,90,2013-10-13 16:55:00
12:15 PM,68.2,41.7,38,30.36,10.0,East,16.1,20.7,N/A,,Scattered Clouds,90,2013-10-13 17:15:00
12:35 PM,68.7,41.0,36,30.35,10.0,East,13.8,20.7,N/A,,Clear,90,2013-10-13 17:35:00
12:55 PM,70.3,41.5,35,30.34,10.0,East,15.0,18.4,N/A,,Clear,90,2013-10-13 17:55:00
1:15 PM,70.9,41.9,35,30.34,10.0,East,16.1,24.2,N/A,,Clear,90,2013-10-13 18:15:00
1:35 PM,70.9,40.8,34,30.33,10.0,ESE,12.7,18.4,N/A,,Clear,120,2013-10-13 18:35:00
1:55 PM,70.9,41.0,34,30.31,10.0,East,11.5,19.6,N/A,,Mostly Cloudy,100,2013-10-13 18:55:00
2:15 PM,70.9,41.7,35,30.30,10.0,East,11.5,17.3,N/A,,Scattered Clouds,100,2013-10-13 19:15:00
2:35 PM,70.9,40.6,33,30.29,10.0,East,13.8,18.4,N/A,,Clear,100,2013-10-13 19:35:00
2:55 PM,70.9,41.0,34,30.29,10.0,ESE,9.2,-,N/A,,Scattered Clouds,110,2013-10-13 19:55:00
3:15 PM,70.9,43.2,37,30.28,10.0,East,10.4,-,N/A,,Scattered Clouds,90,2013-10-13 20:15:00
3:35 PM,70.9,41.4,34,30.28,10.0,East,12.7,16.1,N/A,,Scattered Clouds,100,2013-10-13 20:35:00
3:55 PM,70.9,41.4,34,30.27,10.0,East,11.5,17.3,N/A,,Clear,80,2013-10-13 20:55:00
4:15 PM,70.9,41.2,34,30.27,10.0,East,11.5,16.1,N/A,,Scattered Clouds,90,2013-10-13 21:15:00
4:35 PM,70.9,40.6,33,30.27,10.0,East,11.5,-,N/A,,Clear,90,2013-10-13 21:35:00
4:55 PM,70.9,41.4,34,30.27,10.0,East,10.4,-,N/A,,Clear,90,2013-10-13 21:55:00
5:15 PM,70.9,42.3,36,30.26,10.0,East,11.5,-,N/A,,Clear,80,2013-10-13 22:15:00
5:35 PM,70.9,42.8,36,30.27,10.0,East,9.2,-,N/A,,Clear,100,2013-10-13 22:35:00
5:55 PM,69.1,42.1,38,30.26,10.0,East,9.2,-,N/A,,Clear,100,2013-10-13 22:55:00
6:15 PM,67.6,41.4,38,30.26,10.0,East,6.9,-,N/A,,Clear,90,2013-10-13 23:15:00
6:35 PM,65.1,41.9,43,30.26,10.0,East,5.8,-,N/A,,Clear,90,2013-10-13 23:35:00
6:55 PM,63.3,42.8,47,30.26,10.0,ENE,5.8,-,N/A,,Clear,70,2013-10-13 23:55:00
7:15 PM,62.2,43.3,50,30.26,10.0,East,4.6,-,N/A,,Clear,90,2013-10-14 00:15:00
7:35 PM,61.7,44.1,52,30.27,10.0,Calm,Calm,-,N/A,,Clear,0,2013-10-14 00:35:00
7:55 PM,61.0,44.2,54,30.27,10.0,East,4.6,-,N/A,,Clear,80,2013-10-14 00:55:00
8:15 PM,60.8,44.6,55,30.27,10.0,ENE,3.5,-,N/A,,Clear,70,2013-10-14 01:15:00
8:35 PM,60.8,45.5,57,30.28,10.0,East,4.6,-,N/A,,Clear,80,2013-10-14 01:35:00
8:55 PM,60.8,45.7,57,30.28,10.0,East,3.5,-,N/A,,Clear,90,2013-10-14 01:55:00
9:15 PM,59.9,46.0,60,30.28,10.0,East,4.6,-,N/A,,Clear,90,2013-10-14 02:15:00
9:35 PM,58.3,45.5,62,30.28,10.0,East,4.6,-,N/A,,Clear,90,2013-10-14 02:35:00
9:55 PM,58.3,45.7,63,30.28,10.0,Calm,Calm,-,N/A,,Clear,0,2013-10-14 02:55:00
10:15 PM,58.3,45.9,63,30.29,10.0,East,4.6,-,N/A,,Clear,90,2013-10-14 03:15:00
10:35 PM,58.5,45.5,62,30.29,10.0,East,4.6,-,N/A,,Clear,90,2013-10-14 03:35:00
10:55 PM,58.8,45.5,61,30.29,10.0,East,4.6,-,N/A,,Clear,90,2013-10-14 03:55:00
11:15 PM,58.5,45.7,62,30.28,10.0,East,4.6,-,N/A,,Clear,90,2013-10-14 04:15:00
11:35 PM,58.3,45.5,62,30.27,10.0,ESE,5.8,-,N/A,,Clear,110,2013-10-14 04:35:00
11:55 PM,58.5,45.1,61,30.27,10.0,ESE,4.6,-,N/A,,Clear,120,2013-10-14 04:55:00